Time,TemperatureF,DewpointF,PressureIn,WindDirection,WindDirectionDegrees,WindSpeedMPH,WindSpeedGustMPH,Humidity,HourlyPrecipIn,Conditions,Clouds,dailyrainin,SoftwareType,DateUTC
2013-10-03 00:00:00,58.3,57.0,30.09,WSW,250,0.0,0.0,95,0.00,,,0.00,weatherlink.com 1.10,2013-10-03 04:00:00,
2013-10-03 00:15:00,58.0,57.0,30.10,WSW,250,0.0,0.0,95,0.00,,,0.00,weatherlink.com 1.10,2013-10-03 04:15:00,
2013-10-03 00:30:00,57.6,56.0,30.09,WSW,250,0.0,0.0,95,0.00,,,0.00,weatherlink.com 1.10,2013-10-03 04:30:00,
2013-10-03 00:45:00,57.3,56.0,30.10,WSW,250,0.0,0.0,95,0.00,,,0.00,weatherlink.com 1.10,2013-10-03 04:45:00,
2013-10-03 01:00:00,57.0,56.0,30.10,WSW,250,0.0,0.0,95,0.00,,,0.00,weatherlink.com 1.10,2013-10-03 05:00:00,
2013-10-03 01:15:00,56.7,55.0,30.10,WSW,250,0.0,0.0,95,0.00,,,0.00,weatherlink.com 1.10,2013-10-03 05:15:00,
2013-10-03 01:30:00,56.4,55.0,30.10,WSW,250,0.0,0.0,95,0.00,,,0.00,weatherlink.com 1.10,2013-10-03 05:30:00,
2013-10-03 01:45:00,56.2,55.0,30.10,WSW,250,0.0,0.0,96,0.00,,,0.00,weatherlink.com 1.10,2013-10-03 05:45:00,
2013-10-03 02:00:00,55.9,55.0,30.11,WSW,250,0.0,0.0,96,0.00,,,0.00,weatherlink.com 1.10,2013-10-03 06:00:00,
2013-10-03 02:15:00,55.7,55.0,30.10,WSW,250,0.0,0.0,96,0.00,,,0.00,weatherlink.com 1.10,2013-10-03 06:15:00,
2013-10-03 02:30:00,55.5,54.0,30.10,WSW,250,0.0,0.0,96,0.00,,,0.00,weatherlink.com 1.10,2013-10-03 06:30:00,
2013-10-03 02:46:00,55.4,54.0,30.10,WSW,250,0.0,0.0,96,0.00,,,0.00,weatherlink.com 1.10,2013-10-03 06:46:00,
2013-10-03 03:00:00,55.5,54.0,30.10,WSW,250,0.0,0.0,96,0.00,,,0.00,weatherlink.com 1.10,2013-10-03 07:00:00,
2013-10-03 03:15:00,55.7,55.0,30.10,WSW,250,0.0,0.0,96,0.00,,,0.00,weatherlink.com 1.10,2013-10-03 07:15:00,
2013-10-03 03:30:00,55.4,54.0,30.10,WSW,250,0.0,0.0,96,0.00,,,0.00,weatherlink.com 1.10,2013-10-03 07:30:00,
2013-10-03 03:45:00,55.1,54.0,30.10,WSW,250,0.0,0.0,96,0.00,,,0.00,weatherlink.com 1.10,2013-10-03 07:45:00,
2013-10-03 04:00:00,54.9,54.0,30.10,WSW,250,0.0,0.0,96,0.00,,,0.00,weatherlink.com 1.10,2013-10-03 08:00:00,
2013-10-03 04:15:00,54.7,54.0,30.10,WSW,250,0.0,0.0,96,0.00,,,0.00,weatherlink.com 1.10,2013-10-03 08:15:00,
2013-10-03 04:30:00,54.9,54.0,30.11,WSW,250,0.0,1.0,97,0.00,,,0.00,weatherlink.com 1.10,2013-10-03 08:30:00,
2013-10-03 04:45:00,54.9,54.0,30.11,WSW,250,0.0,0.0,96,0.00,,,0.00,weatherlink.com 1.10,2013-10-03 08:45:00,
2013-10-03 05:00:00,54.9,54.0,30.10,WSW,250,0.0,0.0,96,0.00,,,0.00,weatherlink.com 1.10,2013-10-03 09:00:00,
2013-10-03 05:15:00,54.8,54.0,30.10,WSW,250,0.0,0.0,96,0.00,,,0.00,weatherlink.com 1.10,2013-10-03 09:15:00,
2013-10-03 05:30:00,54.7,54.0,30.11,WSW,250,0.0,0.0,97,0.00,,,0.00,weatherlink.com 1.10,2013-10-03 09:30:00,
2013-10-03 05:45:00,54.6,54.0,30.11,WSW,250,0.0,0.0,97,0.00,,,0.00,weatherlink.com 1.10,2013-10-03 09:45:00,
2013-10-03 06:00:00,54.5,54.0,30.11,WSW,250,0.0,0.0,97,0.00,,,0.00,weatherlink.com 1.10,2013-10-03 10:00:00,
2013-10-03 06:15:00,54.4,54.0,30.11,WSW,250,0.0,0.0,97,0.00,,,0.00,weatherlink.com 1.10,2013-10-03 10:15:00,
2013-10-03 06:30:00,54.6,54.0,30.11,WSW,250,0.0,0.0,97,0.00,,,0.00,weatherlink.com 1.10,2013-10-03 10:30:00,
2013-10-03 06:45:00,54.6,54.0,30.11,WSW,250,0.0,0.0,97,0.00,,,0.00,weatherlink.com 1.10,2013-10-03 10:45:00,
2013-10-03 07:00:00,54.7,54.0,30.11,WSW,253,0.0,0.0,97,0.00,,,0.00,weatherlink.com 1.10,2013-10-03 11:00:00,
2013-10-03 07:15:00,54.5,54.0,30.12,WSW,253,0.0,0.0,97,0.00,,,0.00,weatherlink.com 1.10,2013-10-03 11:15:00,
2013-10-03 07:30:00,54.3,54.0,30.12,West,259,0.0,0.0,97,0.00,,,0.00,weatherlink.com 1.10,2013-10-03 11:30:00,
2013-10-03 07:46:00,54.4,54.0,30.12,West,259,0.0,0.0,97,0.00,,,0.00,weatherlink.com 1.10,2013-10-03 11:46:00,
2013-10-03 08:01:00,54.8,54.0,30.12,West,277,0.0,0.0,97,0.00,,,0.00,weatherlink.com 1.10,2013-10-03 12:01:00,
2013-10-03 08:16:00,56.1,56.0,30.12,West,277,0.0,0.0,98,0.00,,,0.00,weatherlink.com 1.10,2013-10-03 12:16:00,
2013-10-03 08:31:00,56.9,56.0,30.12,West,277,0.0,0.0,97,0.00,,,0.00,weatherlink.com 1.10,2013-10-03 12:31:00,
2013-10-03 08:46:00,57.9,57.0,30.12,West,276,0.0,0.0,98,0.00,,,0.00,weatherlink.com 1.10,2013-10-03 12:46:00,
2013-10-03 09:01:00,58.8,58.0,30.12,West,276,0.0,0.0,98,0.00,,,0.00,weatherlink.com 1.10,2013-10-03 13:01:00,
2013-10-03 09:16:00,59.7,59.0,30.13,West,277,0.0,0.0,98,0.00,,,0.00,weatherlink.com 1.10,2013-10-03 13:16:00,
2013-10-03 09:31:00,60.5,60.0,30.12,West,277,0.0,0.0,98,0.00,,,0.00,weatherlink.com 1.10,2013-10-03 13:31:00,
2013-10-03 09:46:00,61.6,61.0,30.13,West,277,0.0,0.0,98,0.00,,,0.00,weatherlink.com 1.10,2013-10-03 13:46:00,
2013-10-03 10:01:00,62.6,62.0,30.12,West,276,0.0,0.0,98,0.00,,,0.00,weatherlink.com 1.10,2013-10-03 14:01:00,
2013-10-03 10:16:00,63.3,63.0,30.12,West,277,0.0,0.0,97,0.00,,,0.00,weatherlink.com 1.10,2013-10-03 14:16:00,
2013-10-03 10:31:00,64.7,64.0,30.12,West,277,0.0,0.0,98,0.00,,,0.00,weatherlink.com 1.10,2013-10-03 14:31:00,
2013-10-03 10:46:00,66.7,66.0,30.12,West,277,0.0,0.0,98,0.00,,,0.00,weatherlink.com 1.10,2013-10-03 14:46:00,
2013-10-03 11:01:00,67.9,67.0,30.12,ENE,70,0.0,2.0,96,0.00,,,0.00,weatherlink.com 1.10,2013-10-03 15:01:00,
2013-10-03 11:16:00,68.9,68.0,30.12,ENE,75,1.0,1.0,95,0.00,,,0.00,weatherlink.com 1.10,2013-10-03 15:16:00,
2013-10-03 11:31:00,70.1,67.0,30.11,WSW,255,0.0,2.0,91,0.00,,,0.00,weatherlink.com 1.10,2013-10-03 15:31:00,
2013-10-03 11:46:00,71.9,67.0,30.11,ENE,72,0.0,2.0,85,0.00,,,0.00,weatherlink.com 1.10,2013-10-03 15:46:00,
2013-10-03 12:01:00,73.3,67.0,30.10,East,89,0.0,2.0,81,0.00,,,0.00,weatherlink.com 1.10,2013-10-03 16:01:00,
2013-10-03 12:16:00,75.2,67.0,30.10,West,281,1.0,4.0,76,0.00,,,0.00,weatherlink.com 1.10,2013-10-03 16:16:00,
2013-10-03 12:31:00,75.8,66.0,30.09,WSW,252,5.0,7.0,72,0.00,,,0.00,weatherlink.com 1.10,2013-10-03 16:31:00,
2013-10-03 12:46:00,75.8,67.0,30.09,North,8,0.0,5.0,73,0.00,,,0.00,weatherlink.com 1.10,2013-10-03 16:46:00,
2013-10-03 13:01:00,76.3,67.0,30.08,SW,221,1.0,9.0,73,0.00,,,0.00,weatherlink.com 1.10,2013-10-03 17:01:00,
2013-10-03 13:17:00,77.1,67.0,30.08,West,259,2.0,6.0,71,0.00,,,0.00,weatherlink.com 1.10,2013-10-03 17:17:00,
2013-10-03 13:32:00,77.9,67.0,30.07,SW,221,1.0,7.0,70,0.00,,,0.00,weatherlink.com 1.10,2013-10-03 17:32:00,
2013-10-03 13:47:00,77.9,68.0,30.07,NW,307,0.0,4.0,71,0.00,,,0.00,weatherlink.com 1.10,2013-10-03 17:47:00,
2013-10-03 14:02:00,78.2,68.0,30.07,SW,232,1.0,3.0,70,0.00,,,0.00,weatherlink.com 1.10,2013-10-03 18:02:00,
2013-10-03 14:17:00,77.9,67.0,30.06,West,275,0.0,6.0,68,0.00,,,0.00,weatherlink.com 1.10,2013-10-03 18:17:00,
2013-10-03 14:32:00,77.7,67.0,30.06,SW,233,1.0,4.0,70,0.00,,,0.00,weatherlink.com 1.10,2013-10-03 18:32:00,
2013-10-03 14:47:00,78.0,67.0,30.05,WSW,246,1.0,6.0,69,0.00,,,0.00,weatherlink.com 1.10,2013-10-03 18:47:00,
2013-10-03 15:02:00,78.0,67.0,30.06,West,266,1.0,7.0,69,0.00,,,0.00,weatherlink.com 1.10,2013-10-03 19:02:00,
2013-10-03 15:17:00,77.4,66.0,30.05,West,259,1.0,6.0,68,0.00,,,0.00,weatherlink.com 1.10,2013-10-03 19:17:00,
2013-10-03 15:32:00,76.9,66.0,30.05,SW,222,0.0,3.0,70,0.00,,,0.00,weatherlink.com 1.10,2013-10-03 19:32:00,
2013-10-03 15:47:00,76.7,66.0,30.05,SW,221,2.0,4.0,69,0.00,,,0.00,weatherlink.com 1.10,2013-10-03 19:47:00,
2013-10-03 16:02:00,76.4,66.0,30.04,SW,232,3.0,7.0,69,0.00,,,0.00,weatherlink.com 1.10,2013-10-03 20:02:00,
2013-10-03 16:17:00,76.2,66.0,30.04,WSW,256,1.0,5.0,71,0.00,,,0.00,weatherlink.com 1.10,2013-10-03 20:17:00,
2013-10-03 16:32:00,76.5,66.0,30.04,West,277,1.0,3.0,71,0.00,,,0.00,weatherlink.com 1.10,2013-10-03 20:32:00,
2013-10-03 16:47:00,76.5,66.0,30.04,WNW,284,2.0,5.0,70,0.00,,,0.00,weatherlink.com 1.10,2013-10-03 20:47:00,
2013-10-03 17:02:00,76.8,67.0,30.04,WNW,284,0.0,1.0,72,0.00,,,0.00,weatherlink.com 1.10,2013-10-03 21:02:00,
2013-10-03 17:17:00,76.9,66.0,30.04,WNW,290,3.0,3.0,69,0.00,,,0.00,weatherlink.com 1.10,2013-10-03 21:17:00,
2013-10-03 17:32:00,78.0,66.0,30.04,West,263,2.0,4.0,67,0.00,,,0.00,weatherlink.com 1.10,2013-10-03 21:32:00,
2013-10-03 17:47:00,78.2,66.0,30.04,SSW,201,2.0,5.0,67,0.00,,,0.00,weatherlink.com 1.10,2013-10-03 21:47:00,
2013-10-03 18:02:00,77.5,66.0,30.04,SW,229,3.0,3.0,68,0.00,,,0.00,weatherlink.com 1.10,2013-10-03 22:02:00,
2013-10-03 18:17:00,76.7,67.0,30.04,SSE,165,0.0,2.0,72,0.00,,,0.00,weatherlink.com 1.10,2013-10-03 22:17:00,
2013-10-03 18:32:00,74.4,67.0,30.04,SSE,165,0.0,1.0,77,0.00,,,0.00,weatherlink.com 1.10,2013-10-03 22:32:00,
2013-10-03 18:47:00,72.2,66.0,30.04,SSE,165,0.0,0.0,80,0.00,,,0.00,weatherlink.com 1.10,2013-10-03 22:47:00,
2013-10-03 19:02:00,70.3,65.0,30.04,SSE,165,0.0,0.0,83,0.00,,,0.00,weatherlink.com 1.10,2013-10-03 23:02:00,
2013-10-03 19:17:00,68.4,63.0,30.04,WSW,257,0.0,1.0,83,0.00,,,0.00,weatherlink.com 1.10,2013-10-03 23:17:00,
2013-10-03 19:32:00,67.6,63.0,30.04,WSW,257,0.0,0.0,86,0.00,,,0.00,weatherlink.com 1.10,2013-10-03 23:32:00,
2013-10-03 19:47:00,67.1,64.0,30.04,WSW,257,0.0,0.0,88,0.00,,,0.00,weatherlink.com 1.10,2013-10-03 23:47:00,
2013-10-03 20:02:00,66.9,64.0,30.05,WSW,257,0.0,0.0,89,0.00,,,0.00,weatherlink.com 1.10,2013-10-04 00:02:00,
2013-10-03 20:17:00,66.7,64.0,30.05,WSW,257,0.0,0.0,90,0.00,,,0.00,weatherlink.com 1.10,2013-10-04 00:17:00,
2013-10-03 20:32:00,66.5,64.0,30.05,WSW,257,0.0,0.0,91,0.00,,,0.00,weatherlink.com 1.10,2013-10-04 00:32:00,
2013-10-03 20:47:00,66.4,64.0,30.06,WSW,257,0.0,0.0,91,0.00,,,0.00,weatherlink.com 1.10,2013-10-04 00:47:00,
2013-10-03 21:02:00,66.2,64.0,30.06,WSW,257,0.0,0.0,92,0.00,,,0.00,weatherlink.com 1.10,2013-10-04 01:02:00,
2013-10-03 21:17:00,66.3,64.0,30.08,NNE,19,2.0,3.0,92,0.00,,,0.00,weatherlink.com 1.10,2013-10-04 01:17:00,
2013-10-03 21:32:00,68.0,65.0,30.08,NNE,18,0.0,1.0,90,0.00,,,0.00,weatherlink.com 1.10,2013-10-04 01:32:00,
2013-10-03 21:47:00,67.9,64.0,30.08,NE,47,1.0,1.0,88,0.00,,,0.00,weatherlink.com 1.10,2013-10-04 01:47:00,
2013-10-03 22:02:00,66.9,64.0,30.08,West,264,0.0,1.0,90,0.00,,,0.00,weatherlink.com 1.10,2013-10-04 02:02:00,
2013-10-03 22:17:00,66.0,64.0,30.08,West,264,0.0,0.0,92,0.00,,,0.00,weatherlink.com 1.10,2013-10-04 02:17:00,
2013-10-03 22:32:00,65.6,64.0,30.08,West,264,0.0,0.0,93,0.00,,,0.00,weatherlink.com 1.10,2013-10-04 02:32:00,
2013-10-03 22:47:00,65.4,64.0,30.08,East,90,0.0,0.0,94,0.00,,,0.00,weatherlink.com 1.10,2013-10-04 02:47:00,
2013-10-03 23:02:00,65.0,63.0,30.08,ESE,110,0.0,1.0,94,0.00,,,0.00,weatherlink.com 1.10,2013-10-04 03:02:00,
2013-10-03 23:17:00,65.0,64.0,30.07,ESE,110,0.0,1.0,95,0.00,,,0.00,weatherlink.com 1.10,2013-10-04 03:17:00,
2013-10-03 23:32:00,64.8,63.0,30.07,ESE,110,0.0,0.0,95,0.00,,,0.00,weatherlink.com 1.10,2013-10-04 03:32:00,
2013-10-03 23:47:00,64.6,63.0,30.07,ESE,110,0.0,0.0,95,0.00,,,0.00,weatherlink.com 1.10,2013-10-04 03:47:00,